Vorticity
nan nan nan nan nan nan nan nan nan nan nan nan nan nan nan nan nan nan nan nan nan nan nan nan nan nan nan nan nan nan nan nan nan nan nan nan nan nan nan nan nan nan nan nan nan nan nan nan nan nan nan nan nan nan nan nan nan nan nan nan nan nan nan nan nan nan nan nan nan nan nan nan nan nan nan nan nan nan nan nan nan nan nan nan nan nan
nan 9 8 8 10 11 8 5 7 9 9 8 8 7 6 8 11 12 12 10 11 11 11 10 9 8 9 9 7 6 5 5 5 5 7 8 9 9 9 9 8 8 8 8 8 9 9 9 9 9 9 10 10 10 10 10 10 10 10 10 10 10 10 10 9 9 8 8 8 8 8 8 8 8 8 9 9 9 10 9 9 9 10 10 10 nan
nan 9 9 8 10 11 8 5 7 8 9 9 8 6 6 10 12 12 9 9 10 10 10 9 9 9 11 11 8 7 5 4 5 6 7 8 9 9 9 9 8 8 8 9 8 8 8 9 9 9 9 10 10 10 10 10 10 10 10 10 10 10 10 9 9 8 8 8 8 8 9 9 8 8 8 9 9 9 9 9 9 9 10 10 10 nan
nan 9 9 9 9 9 8 6 7 9 10 10 8 8 11 14 13 10 8 8 9 9 9 8 10 11 13 11 8 5 4 5 6 8 8 9 9 9 9 9 9 8 9 9 9 9 8 8 9 9 9 10 10 10 10 10 10 10 10 10 10 10 10 9 9 8 8 8 9 9 9 9 8 8 9 9 9 9 9 9 9 9 10 10 10 nan
nan 8 9 10 9 9 7 7 8 10 11 11 11 11 13 13 11 9 8 8 9 10 10 10 10 11 11 9 5 3 4 6 8 9 10 10 10 9 9 9 9 9 9 9 9 9 8 8 8 9 9 9 9 9 9 10 10 10 10 10 10 10 9 9 8 8 8 9 9 9 9 9 9 9 9 9 9 9 9 9 9 10 10 10 10 nan
nan 9 9 10 9 8 8 8 9 10 12 12 12 13 12 11 10 9 8 9 10 11 11 10 10 10 9 7 4 4 7 9 10 10 11 10 10 10 10 9 9 9 9 9 9 9 9 9 9 9 9 9 9 9 10 10 10 10 10 10 9 9 8 8 8 9 9 9 9 9 9 9 9 9 9 9 9 9 9 9 9 9 10 10 10 nan
nan 9 9 10 10 9 8 8 8 10 11 11 11 12 11 11 10 9 9 9 9 10 10 9 10 10 9 7 7 8 10 11 11 12 11 11 11 11 10 9 9 10 10 9 9 9 9 9 9 9 9 9 9 9 9 10 10 10 9 9 9 8 8 8 9 9 9 9 9 9 9 9 9 9 9 10 10 9 9 9 10 10 10 10 9 nan
nan 8 9 10 11 11 10 8 8 8 9 10 10 10 10 11 10 10 10 11 10 10 10 9 10 10 9 8 9 11 11 11 11 11 11 12 11 11 10 10 10 11 10 10 9 9 9 10 9 9 8 9 9 9 9 10 9 9 9 9 8 8 8 9 9 9 9 10 9 9 9 9 9 10 10 10 10 10 10 10 10 10 10 10 9 nan
nan 9 8 9 10 11 10 9 7 7 9 9 8 7 8 9 10 11 11 12 11 10 9 9 9 9 8 9 10 9 9 8 8 7 8 9 7 6 7 10 11 11 10 10 10 10 10 10 9 9 9 9 9 9 9 9 9 8 8 8 8 8 9 9 10 10 10 9 9 9 9 9 10 10 10 10 10 10 10 10 10 10 10 9 9 nan
nan 9 9 9 9 10 9 8 7 7 9 10 9 8 6 6 8 9 10 11 10 9 8 8 8 9 9 10 9 8 7 7 6 6 7 6 4 5 10 12 12 9 8 10 10 11 11 10 9 9 9 9 10 9 9 9 8 8 8 8 8 9 9 9 10 10 10 9 9 9 9 10 10 10 11 10 10 10 10 10 10 10 10 9 9 nan
nan 9 10 10 10 10 9 8 8 7 10 13 13 12 7 5 6 7 9 10 9 9 8 7 8 9 10 10 9 8 8 9 9 10 9 8 10 13 15 16 14 11 11 12 12 12 11 9 9 10 11 10 10 9 8 8 7 7 7 8 8 9 9 10 10 10 10 9 9 9 10 10 10 11 10 10 10 10 10 10 10 10 9 9 9 nan
nan 9 9 9 10 10 10 10 10 10 11 12 13 12 9 7 7 7 8 8 8 8 9 9 9 9 9 10 10 9 8 9 10 11 12 12 14 16 17 17 15 14 15 15 15 13 10 10 11 12 12 10 8 7 7 7 6 6 7 8 9 9 9 10 10 10 10 10 9 9 10 10 10 10 10 10 10 10 10 10 10 10 10 9 9 nan
nan 10 9 9 9 9 10 10 11 11 10 10 9 9 8 8 8 9 8 7 8 8 9 10 10 11 13 14 12 9 7 8 9 10 10 11 12 13 14 13 13 13 14 14 14 10 8 10 13 13 11 9 7 6 6 6 5 6 7 8 9 9 10 10 10 10 10 10 10 10 10 10 10 10 10 10 10 10 10 10 10 10 10 9 10 nan
nan 10 10 9 9 9 9 9 10 10 9 9 8 8 8 7 8 9 9 8 9 9 9 9 10 14 16 15 13 9 7 8 9 9 9 9 9 10 10 9 9 10 11 11 9 7 7 13 14 11 9 8 6 6 5 5 5 6 8 9 9 9 10 10 9 10 10 10 10 10 10 10 10 10 10 10 10 10 10 10 10 10 10 10 10 nan
nan 10 10 10 9 9 9 9 9 9 8 8 8 9 9 8 9 9 9 9 10 10 11 11 12 16 16 13 10 7 7 9 9 9 9 10 9 9 9 10 9 9 9 9 9 6 9 14 13 9 6 3 3 2 3 4 4 6 8 8 9 9 9 9 9 9 9 10 10 10 10 10 10 10 10 10 10 10 10 10 10 10 10 10 10 nan
nan 10 9 9 9 9 9 9 9 8 8 8 8 9 10 10 10 9 9 10 11 11 11 12 14 17 16 10 7 5 8 10 10 9 9 11 10 9 10 10 10 9 9 9 9 9 11 11 10 8 4 -1 -2 -0 3 5 5 7 8 9 9 9 9 9 9 9 10 10 10 10 10 10 10 10 10 11 11 11 11 10 10 10 10 10 10 nan
nan 9 9 9 9 9 9 9 9 9 9 9 9 9 9 10 10 9 10 11 11 11 9 9 12 14 13 8 5 3 7 11 10 9 10 10 9 9 10 11 10 9 9 8 9 9 10 10 9 8 1 -5 -3 1 5 6 6 7 8 9 9 9 9 9 9 9 9 10 10 10 10 10 10 10 10 11 11 11 11 11 11 11 11 11 11 nan
nan 9 9 9 9 9 9 9 9 9 9 9 9 9 9 9 9 10 10 10 10 9 9 10 10 9 8 6 3 0 5 10 11 10 10 10 10 10 10 11 10 9 8 9 9 9 10 9 7 3 -5 -7 -0 4 6 7 7 8 8 9 9 9 9 9 9 9 9 10 10 10 10 10 10 10 10 11 11 11 11 11 11 11 11 11 11 nan
nan 9 9 9 9 9 9 9 9 9 9 9 8 8 9 10 10 10 10 10 9 8 9 10 9 8 7 4 1 0 5 10 10 10 10 10 10 10 10 11 10 9 9 9 10 10 10 8 4 0 -2 1 5 6 7 7 7 8 8 8 8 8 8 8 9 9 9 10 10 10 9 10 10 10 11 11 11 11 11 11 11 11 11 11 11 nan
nan 9 9 9 9 9 9 8 8 8 8 8 8 9 10 9 9 9 10 9 9 10 9 8 8 8 8 5 3 4 6 10 11 11 11 10 10 10 11 10 10 10 10 10 10 10 9 8 8 6 6 7 6 6 7 8 8 8 8 8 8 8 8 8 9 9 10 10 10 10 9 10 10 10 11 11 11 11 11 11 12 11 11 11 11 nan
nan 8 8 9 10 10 8 6 5 5 7 9 10 11 10 9 9 9 9 8 8 9 9 9 8 8 7 6 6 5 7 11 12 13 12 10 10 9 10 9 10 9 10 10 9 9 9 9 10 9 5 3 4 6 7 9 9 9 8 8 7 8 8 8 9 9 9 10 10 10 10 10 10 11 11 11 11 11 11 11 11 12 12 11 11 nan
nan 8 7 9 10 10 7 4 5 6 8 11 12 11 10 9 8 8 8 8 8 8 9 8 8 7 6 8 9 10 12 13 10 10 9 7 7 8 9 9 9 10 10 10 9 8 9 10 10 6 2 2 5 8 10 10 10 9 8 8 8 8 8 8 9 9 9 9 9 10 10 10 11 11 11 11 11 11 11 11 11 11 12 11 11 nan
nan 8 8 9 10 9 8 7 8 9 11 12 11 11 10 8 8 7 8 8 8 9 9 9 9 10 11 11 12 15 17 15 10 8 7 7 7 9 9 9 10 10 9 8 8 8 10 11 9 7 6 6 10 11 11 11 10 9 8 8 8 8 9 9 9 9 9 9 9 10 10 11 11 11 11 11 11 11 11 11 12 11 11 11 12 nan
nan 8 9 9 9 9 9 9 9 9 10 11 11 10 10 9 9 8 8 8 9 9 9 9 11 14 15 14 14 15 17 16 11 9 8 9 7 7 7 9 10 10 9 8 8 8 10 11 10 10 10 11 13 12 12 10 9 8 8 9 9 10 10 10 9 9 9 9 9 9 10 11 11 11 11 11 11 11 11 11 11 11 11 12 13 nan
nan 8 8 8 8 8 7 6 7 8 9 10 10 10 10 11 11 11 11 11 11 10 9 9 11 14 14 14 14 13 14 13 9 8 8 8 6 7 8 9 10 10 9 9 9 10 11 11 10 11 11 13 13 12 10 8 7 7 9 10 11 11 11 10 10 9 8 8 9 9 10 11 11 11 11 11 11 11 11 11 11 11 12 14 16 nan
nan 8 8 7 7 7 8 8 8 9 10 10 10 10 10 12 13 14 14 13 11 9 9 11 12 12 12 12 11 11 11 12 9 8 8 7 6 8 9 10 10 9 9 10 10 10 10 11 11 12 13 13 12 11 7 6 6 8 10 12 12 12 12 10 9 8 8 8 9 10 10 11 11 11 11 11 11 11 11 11 11 12 14 17 19 nan
nan 10 9 9 10 11 12 12 11 10 10 10 9 10 12 13 13 12 12 10 9 10 10 11 11 11 12 10 10 9 10 13 12 10 9 8 8 9 9 9 9 9 12 12 10 9 10 12 13 13 13 12 10 6 5 6 7 9 12 14 13 13 12 10 9 8 8 9 9 10 11 11 11 11 11 11 10 10 10 10 11 14 18 23 25 nan
nan 11 11 11 11 11 12 12 11 11 10 9 10 13 15 14 12 10 9 9 9 10 10 8 9 11 10 9 10 11 14 16 13 10 10 11 10 9 7 8 9 11 14 14 12 12 16 17 15 14 12 9 7 5 6 8 11 14 15 14 14 13 11 10 9 8 8 9 10 11 11 11 11 11 11 10 10 10 9 10 13 18 24 28 25 nan
nan 10 10 10 10 11 11 12 11 10 9 10 12 15 16 14 11 9 8 8 9 9 9 8 9 10 9 9 11 14 17 15 10 8 10 13 12 9 7 8 9 11 14 15 15 18 19 17 15 13 9 7 8 9 9 11 15 17 16 14 14 13 11 9 8 9 9 10 11 12 12 11 11 11 11 10 10 9 9 11 17 24 27 23 18 nan
nan 11 11 9 10 11 12 12 11 10 9 10 12 14 14 12 10 9 9 9 9 8 8 8 9 9 9 11 14 17 16 9 5 6 11 15 13 9 7 8 9 10 13 15 16 16 15 14 12 9 6 7 10 11 11 13 15 16 15 14 14 11 9 8 9 10 11 12 11 12 12 12 12 11 11 10 9 9 8 13 21 26 23 16 13 nan
nan 11 11 10 10 11 11 11 11 10 10 11 12 13 12 11 10 10 10 9 8 8 7 7 8 8 10 12 13 13 9 2 1 5 14 16 12 7 7 10 9 10 12 12 10 10 11 12 9 6 6 9 11 11 11 12 13 13 13 13 12 7 5 8 11 12 13 12 11 12 12 12 12 12 11 10 9 9 8 13 20 24 20 14 13 nan
nan 11 10 10 10 10 11 11 10 10 11 11 11 11 11 10 10 9 9 9 9 8 7 7 8 8 9 10 8 8 5 0 -1 4 14 17 12 8 8 9 9 10 11 10 9 8 8 7 5 4 6 10 12 11 11 12 12 12 11 11 10 5 5 10 13 15 13 11 11 12 12 13 12 11 10 9 9 8 8 12 18 22 19 14 13 nan
nan 10 10 10 11 11 10 10 10 10 10 10 10 10 11 11 10 10 9 10 9 9 8 7 8 8 9 10 9 7 4 1 -1 2 12 17 13 10 7 7 8 10 10 11 11 10 8 3 3 5 8 10 11 11 11 12 12 11 11 11 10 7 8 12 14 13 11 11 12 12 12 13 12 11 10 9 9 8 8 10 14 18 19 16 13 nan
nan 11 10 11 11 11 11 10 10 10 10 10 10 10 10 11 11 11 11 10 10 9 8 8 8 8 9 11 11 9 7 3 0 3 11 16 13 9 6 8 9 10 11 12 12 13 10 5 5 7 8 9 10 11 11 11 10 10 10 11 11 9 10 11 12 11 10 12 13 12 12 12 11 11 10 9 8 7 7 9 11 14 17 17 14 nan
nan 11 11 11 11 11 11 11 11 11 10 10 10 10 10 10 11 11 11 11 10 10 9 8 7 7 7 8 8 8 6 3 1 4 9 13 12 9 9 9 9 9 10 10 10 12 9 6 6 8 9 10 11 11 10 9 9 9 10 10 11 10 10 10 10 9 10 11 12 12 12 11 10 9 8 5 5 5 7 10 11 12 14 15 15 nan
nan 11 11 10 10 10 10 10 10 10 11 11 11 10 10 10 10 11 11 11 10 10 10 9 8 7 5 5 4 4 3 2 1 3 7 10 10 10 9 8 6 7 9 9 9 9 8 7 8 9 11 13 13 11 8 6 7 9 9 10 10 10 10 10 10 10 10 10 10 10 10 10 9 8 4 1 4 8 11 12 12 12 12 12 13 nan
nan 10 10 10 10 10 10 10 10 10 10 10 10 9 9 10 9 9 11 11 10 10 10 11 11 9 4 2 1 0 -0 -1 -0 1 4 8 9 9 8 5 5 7 9 9 9 8 8 8 9 12 14 14 11 7 4 5 7 9 9 9 10 11 11 11 11 11 11 10 10 9 9 9 9 9 4 5 11 14 14 15 15 13 12 13 13 nan
nan 10 9 10 10 10 10 10 9 9 9 9 9 8 9 9 9 9 11 12 12 11 10 11 12 14 11 6 3 0 -1 -1 0 2 6 9 10 9 7 6 6 8 8 8 8 8 8 8 9 12 14 11 7 4 5 7 8 9 9 9 10 11 11 11 11 12 11 10 9 8 9 11 11 10 9 12 15 15 15 14 12 11 13 15 14 nan
nan 9 9 9 10 10 10 9 9 9 9 8 8 8 9 10 11 12 12 13 13 13 11 9 11 15 18 17 13 10 8 10 10 11 13 13 12 10 9 7 7 8 9 10 9 9 8 8 8 8 7 7 7 9 10 9 7 7 9 12 13 12 10 10 11 12 11 10 9 10 11 11 11 11 11 11 11 11 12 11 10 11 15 16 14 nan
nan 10 9 9 10 10 9 8 8 9 9 9 9 10 11 12 13 13 13 13 13 13 13 13 13 14 16 18 20 20 19 18 16 15 16 15 11 8 8 7 7 8 9 11 11 10 9 8 7 7 7 7 6 7 7 7 5 5 10 16 13 7 6 10 11 12 11 9 9 10 11 10 9 10 10 10 10 11 11 10 9 9 12 14 14 nan
nan 10 9 9 9 10 10 9 9 9 9 10 11 12 11 11 11 12 12 13 13 13 14 14 15 14 15 17 19 21 22 18 16 13 13 11 10 8 7 8 8 8 9 10 10 10 9 8 8 9 10 8 8 8 8 5 3 6 13 15 10 5 6 10 12 12 10 9 9 9 9 10 10 10 10 10 11 11 10 9 8 9 12 12 12 nan
nan 10 9 9 9 9 9 9 10 10 11 11 11 10 10 10 10 9 10 11 11 11 11 12 12 12 14 17 18 19 19 17 15 13 12 13 11 10 8 7 7 8 8 9 10 10 10 10 10 11 10 10 10 11 8 6 7 9 13 11 10 12 13 12 11 10 9 9 10 9 11 12 11 10 9 11 12 11 11 9 9 10 12 13 11 nan
nan 9 9 9 10 9 9 11 12 13 12 11 10 10 10 9 9 8 9 9 9 9 10 11 11 11 12 13 14 15 15 14 12 13 14 14 13 11 8 7 8 8 9 10 11 12 12 12 12 12 10 10 10 9 8 8 9 10 10 9 12 18 16 9 6 7 9 10 11 11 11 11 10 10 10 11 12 12 12 11 12 14 14 13 12 nan
nan 10 10 11 11 11 11 11 11 11 11 10 10 10 9 8 9 10 11 10 9 9 11 11 12 12 12 11 11 11 12 12 13 15 14 12 11 11 10 10 11 11 11 11 11 10 12 13 13 11 11 11 11 10 10 9 9 9 8 8 11 14 11 6 4 8 11 11 10 9 9 9 10 11 11 12 12 12 12 13 14 13 13 13 12 nan
nan 10 11 11 11 11 10 10 10 10 11 10 10 11 10 9 10 11 11 9 9 10 11 12 13 13 11 10 10 11 11 12 13 14 12 10 10 12 13 14 13 13 13 12 10 9 9 10 10 11 12 11 11 10 9 9 9 9 8 8 11 12 10 8 8 10 11 10 9 7 7 10 12 13 13 12 11 11 11 11 11 12 13 13 12 nan
nan 10 11 11 10 9 9 10 10 11 11 11 11 11 11 11 11 11 10 10 11 11 11 12 12 10 7 8 10 11 10 10 11 11 11 11 12 13 14 13 12 12 12 11 11 10 9 8 7 8 10 12 12 11 10 9 10 10 8 9 11 12 11 11 10 10 10 10 8 6 7 12 14 15 12 10 11 11 11 12 12 12 12 12 12 nan
nan 10 10 10 10 10 10 10 10 10 10 11 11 11 11 11 11 10 10 11 12 12 12 12 11 9 8 8 9 8 8 9 10 11 10 10 10 11 12 12 11 12 12 11 10 11 11 10 8 8 8 10 12 12 11 10 10 9 9 10 11 12 11 10 10 9 10 10 7 5 9 15 16 14 11 11 11 12 12 12 12 13 14 13 13 nan
nan 10 10 10 10 10 10 10 10 10 10 10 10 10 10 9 9 11 11 11 12 12 12 11 10 9 10 10 9 8 8 10 11 11 11 11 11 11 12 11 12 13 13 13 14 15 16 15 14 13 12 11 11 10 10 10 10 10 10 10 11 11 11 10 9 9 10 8 6 7 13 16 14 11 11 11 11 10 10 11 13 14 15 14 13 nan
nan 10 9 10 10 9 9 9 9 9 9 9 10 10 9 8 10 13 13 11 12 12 11 10 10 10 10 10 9 8 10 12 12 11 11 11 11 11 10 11 12 13 14 16 18 20 21 22 22 21 19 16 14 12 11 10 9 10 10 11 11 11 11 10 9 9 9 8 8 11 15 15 12 11 11 10 9 9 10 11 13 14 15 14 14 nan
nan 10 10 9 9 9 9 9 9 9 9 9 10 10 10 11 12 13 12 12 12 11 10 9 10 10 10 9 9 9 11 13 12 11 11 11 10 10 10 10 12 14 15 16 17 19 21 23 23 24 22 19 16 15 13 11 10 11 11 11 11 10 10 9 9 8 8 9 10 12 15 15 14 13 12 10 9 10 11 12 13 13 13 14 13 nan
nan nan nan nan nan nan nan nan nan nan nan nan nan nan nan nan nan nan nan nan nan nan nan nan nan nan nan nan nan nan nan nan nan nan nan nan nan nan nan nan nan nan nan nan nan nan nan nan nan nan nan nan nan nan nan nan nan nan nan nan nan nan nan nan nan nan nan nan nan nan nan nan nan nan nan nan nan nan nan nan nan nan nan nan nan nan
CAPE
nan nan nan nan nan nan nan nan nan nan nan nan nan nan nan nan nan nan nan nan nan nan nan nan nan nan nan nan nan nan nan nan nan nan nan 0 1 1 2 3 3 3 4 6 6 8 11 12 12 12 15 18 23 23 26 28 28 30 32 34 34 36 40 46 46 52 68 80 99 99 108 119 129 129 134 135 136 136 132 124 124 123 131 159 159 179
nan nan nan nan nan nan nan nan nan nan nan nan nan nan nan nan nan nan nan nan nan nan nan nan nan nan nan nan nan nan nan nan nan nan nan nan 0 0 1 1 1 2 4 6 6 8 10 9 9 9 10 13 18 18 22 23 23 25 25 27 27 27 31 40 40 51 66 86 101 101 113 117 117 117 121 121 118 118 115 113 113 123 141 160 160 171
nan nan nan nan nan nan nan nan nan nan nan nan nan nan nan nan nan nan nan nan nan nan nan nan nan nan nan nan nan nan nan nan nan nan nan nan nan nan 0 1 1 2 3 5 5 7 8 6 6 7 8 10 14 14 17 18 18 20 20 21 21 23 26 34 34 44 63 81 98 98 110 110 107 107 106 102 103 103 104 110 110 126 147 161 161 157
nan nan nan nan nan nan nan nan nan nan nan nan nan nan nan nan nan nan nan nan nan nan nan nan nan nan nan nan nan nan nan nan nan nan nan nan nan nan nan 0 0 1 2 3 3 4 5 5 5 5 6 7 10 10 14 16 16 16 17 19 19 21 23 31 31 39 56 71 86 86 95 95 95 95 91 88 97 97 102 111 111 125 150 156 156 157
nan nan nan nan nan nan nan nan nan nan nan nan nan nan nan nan nan nan nan nan nan nan nan nan nan nan nan nan nan nan nan nan nan nan nan nan nan nan nan nan nan 0 0 1 1 1 2 3 3 4 4 5 8 8 10 12 12 13 14 16 16 20 24 31 31 39 51 64 70 70 79 78 80 80 83 87 92 92 98 108 108 123 139 152 152 148
nan nan nan nan nan nan nan nan nan nan nan nan nan nan nan nan nan nan nan nan nan nan nan nan nan nan nan nan nan nan nan nan nan nan nan nan nan nan nan nan nan nan nan nan nan nan 0 1 1 1 2 4 5 5 7 9 9 10 12 15 15 20 26 33 33 40 48 57 66 66 70 73 81 81 88 90 91 91 93 101 101 121 133 147 147 142
nan nan nan nan nan nan nan nan nan nan nan nan nan nan nan nan nan nan nan nan nan nan nan nan nan nan nan nan nan nan nan nan nan nan nan nan nan nan nan nan nan nan nan nan nan nan nan 0 0 0 1 2 4 4 5 6 6 8 11 16 16 21 29 35 35 43 48 56 61 61 66 73 82 82 90 90 88 88 92 104 104 116 131 136 136 139
nan nan nan nan nan nan nan nan nan nan nan nan nan nan nan nan nan nan nan nan nan nan nan nan nan nan nan nan nan nan nan nan nan nan nan nan nan nan nan nan nan nan nan nan nan nan nan nan nan nan nan nan 0 0 1 3 3 7 13 18 18 23 30 38 38 44 48 55 58 58 64 74 80 80 80 82 86 86 90 94 94 104 113 112 112 117
nan nan nan nan nan nan nan nan nan nan nan nan nan nan nan nan nan nan nan nan nan nan nan nan nan nan nan nan nan nan nan nan nan nan nan nan nan nan nan nan nan nan nan nan nan nan nan nan nan nan nan nan nan nan 0 2 2 6 13 18 18 24 30 39 39 44 50 55 59 59 67 74 78 78 80 82 79 79 81 87 87 95 102 103 103 110
nan nan nan nan nan nan nan nan nan nan nan nan nan nan nan nan nan nan nan nan nan nan nan nan nan nan nan nan nan nan nan nan nan nan nan nan nan nan nan nan nan nan nan nan nan nan nan nan nan nan nan nan nan nan nan 1 1 6 14 20 20 24 31 40 40 45 48 54 60 60 67 71 76 76 77 78 79 79 78 79 79 80 88 99 99 108
nan nan nan nan nan nan nan nan nan nan nan nan nan nan nan nan nan nan nan nan nan nan nan nan nan nan nan nan nan nan nan nan nan nan nan nan nan nan nan nan nan nan nan nan nan nan nan nan nan nan nan nan nan nan nan 0 0 6 14 20 20 24 31 38 38 41 48 54 61 61 67 71 75 75 74 78 77 77 76 78 78 79 84 90 90 100
nan nan nan nan nan nan nan nan nan nan nan nan nan nan nan nan nan nan nan nan nan nan nan nan nan nan nan nan nan nan nan nan nan nan nan nan nan nan nan nan nan nan nan nan nan nan nan nan nan nan nan nan nan nan nan 0 0 6 14 20 20 24 30 37 37 42 47 51 57 57 63 68 69 69 69 72 77 77 80 79 79 80 83 82 82 93
nan nan nan nan nan nan nan nan nan nan nan nan nan nan nan nan nan nan nan nan nan nan nan nan nan nan nan nan nan nan nan nan nan nan nan nan nan nan nan nan nan nan nan nan nan nan nan nan nan nan nan nan nan nan nan 0 0 6 13 20 20 24 29 33 33 39 44 48 55 55 57 63 65 65 69 72 74 74 79 78 78 82 84 83 83 89
nan nan nan nan nan nan nan nan nan nan nan nan nan nan nan nan nan nan nan nan nan nan nan nan nan nan nan nan nan nan nan nan nan nan nan nan nan nan nan nan nan nan nan nan nan nan nan nan nan nan nan nan nan nan nan 1 1 6 13 19 19 24 26 31 31 37 44 47 53 53 57 61 65 65 68 68 76 76 78 80 80 82 84 87 87 92
nan nan nan nan nan nan nan nan nan nan nan nan nan nan nan nan nan nan nan nan nan nan nan nan nan nan nan nan nan nan nan nan nan nan nan nan nan nan nan nan nan nan nan nan nan nan nan nan nan nan nan nan nan nan nan 0 0 7 12 17 17 21 24 28 28 33 42 46 50 50 53 58 62 62 65 70 75 75 76 77 77 81 84 84 84 92
nan nan nan nan nan nan nan nan nan nan nan nan nan nan nan nan nan nan nan nan nan nan nan nan nan nan nan nan nan nan nan nan nan nan nan nan nan nan nan nan nan nan nan nan nan nan nan nan nan nan nan nan nan nan nan 1 1 6 9 15 15 18 22 25 25 31 38 46 50 50 52 56 61 61 67 70 74 74 76 78 78 81 82 84 84 93
nan nan nan nan nan nan nan nan nan nan nan nan nan nan nan nan nan nan nan nan nan nan nan nan nan nan nan nan nan nan nan nan nan nan nan nan nan nan nan nan nan nan nan nan nan nan nan nan nan nan nan nan nan nan nan 1 1 4 8 13 13 16 19 23 23 30 35 41 48 48 51 54 59 59 64 70 75 75 79 81 81 80 83 87 87 91
nan nan nan nan nan nan nan nan nan nan nan nan nan nan nan nan nan nan nan nan nan nan nan nan nan nan nan nan nan nan nan nan nan nan nan nan nan nan nan nan nan nan nan nan nan nan nan nan nan nan nan nan nan nan nan 0 0 3 6 8 8 12 17 22 22 26 33 39 45 45 48 53 56 56 61 67 75 75 76 81 81 82 84 85 85 86
nan nan nan nan nan nan nan nan nan nan nan nan nan nan nan nan nan nan nan nan nan nan nan nan nan nan nan nan nan nan nan nan nan nan nan nan nan nan nan nan nan nan nan nan nan nan nan nan nan nan nan nan nan nan nan 0 0 2 4 6 6 9 14 21 21 26 29 34 42 42 46 51 56 56 60 67 74 74 79 81 81 82 82 81 81 87
nan nan nan nan nan nan nan nan nan nan nan nan nan nan nan nan nan nan nan nan nan nan nan nan nan nan nan nan nan nan nan nan nan nan nan nan nan nan nan nan nan nan nan nan nan nan nan nan nan nan nan nan nan nan nan 0 0 1 2 4 4 7 14 20 20 26 28 33 38 38 45 50 54 54 58 64 72 72 78 81 81 82 81 83 83 83
nan nan nan nan nan nan nan nan nan nan nan nan nan nan nan nan nan nan nan nan nan nan nan nan nan nan nan nan nan nan nan nan nan nan nan nan nan nan nan nan nan nan nan nan nan nan nan nan nan nan nan nan nan nan nan nan nan 0 1 3 3 7 14 21 21 25 28 31 35 35 44 50 55 55 59 60 67 67 77 82 82 81 80 81 81 83
nan nan nan nan nan nan nan nan nan nan nan 0 nan nan nan nan nan nan nan nan nan nan nan nan nan nan nan nan nan nan nan nan nan nan nan nan nan nan nan nan nan nan nan nan nan nan nan nan nan nan nan nan nan nan nan nan nan 0 1 3 3 7 15 20 20 25 27 31 36 36 44 47 54 54 57 59 66 66 75 76 76 79 79 82 82 84
nan nan nan nan nan nan nan nan nan nan nan nan nan nan nan nan nan nan nan nan nan nan nan nan nan nan nan nan nan nan nan nan nan nan nan nan nan nan nan nan nan nan nan nan nan nan nan nan nan nan nan nan nan nan nan nan nan nan 1 4 4 9 14 18 18 24 27 29 34 34 42 48 51 51 56 59 65 65 71 73 73 78 77 80 80 81
nan nan nan nan nan nan nan nan nan nan nan nan nan nan 1 nan nan nan nan nan nan nan nan nan nan nan nan nan nan nan nan nan nan nan nan nan nan nan nan nan nan nan nan nan nan nan nan nan nan nan nan nan nan nan nan nan nan nan 1 5 5 8 14 17 17 21 24 29 34 34 39 46 51 51 55 61 65 65 66 70 70 73 76 81 81 80
nan nan nan nan nan 0 nan nan nan nan nan nan nan nan 1 1 nan nan nan nan nan nan nan nan nan nan nan nan nan nan nan nan nan nan nan nan nan nan nan nan nan nan nan nan nan nan nan nan nan nan nan nan nan nan nan nan nan nan 1 5 5 8 11 15 15 19 23 27 31 31 37 44 48 48 54 58 60 60 64 67 67 71 71 75 75 73
nan nan nan nan nan 0 1 0 0 0 nan nan 0 0 0 nan nan nan nan nan nan nan nan nan nan nan nan nan nan nan nan nan nan nan nan nan nan nan nan nan nan nan nan nan nan nan nan nan nan nan nan nan nan nan nan nan nan nan 1 4 4 6 9 13 13 17 21 26 29 29 34 41 45 45 49 53 58 58 61 64 64 67 68 68 68 61
nan nan nan nan nan nan nan nan nan nan 1 2 0 0 nan nan nan nan nan nan nan nan nan nan nan nan nan nan nan nan nan nan nan nan nan nan nan nan nan nan nan nan nan nan nan nan nan nan nan nan nan nan nan nan nan nan nan nan 0 2 2 4 7 10 10 15 21 26 28 28 31 37 41 41 46 49 56 56 59 62 62 63 63 59 59 56
nan nan nan nan nan nan nan nan nan nan 0 3 4 4 0 nan nan nan nan nan nan nan nan nan nan nan nan nan nan nan nan nan nan nan nan nan nan nan nan nan nan nan nan nan nan nan nan nan nan nan nan nan nan nan nan nan nan nan 0 1 1 2 5 8 8 14 19 25 28 28 31 34 37 37 41 45 51 51 55 60 60 61 60 45 45 25
nan nan nan nan nan nan nan nan nan nan nan 1 1 1 nan nan nan nan nan nan nan nan nan nan nan nan nan nan nan nan nan nan nan nan nan nan nan nan nan nan nan nan nan nan nan nan nan nan nan nan nan nan nan nan nan nan nan nan 0 0 0 1 3 6 6 13 18 23 28 28 32 33 35 35 38 42 49 49 53 58 58 56 48 32 32 15
nan nan nan nan nan nan nan nan nan nan nan nan nan nan nan nan nan nan nan nan nan nan nan nan nan nan nan nan nan nan nan nan nan nan nan nan nan nan nan nan nan nan nan nan nan nan nan nan nan nan nan nan nan nan nan nan nan nan 0 1 1 1 2 5 5 11 17 21 26 26 29 32 33 33 36 42 46 46 49 57 57 50 31 19 19 14
nan nan nan nan nan nan nan nan nan nan nan nan nan nan nan nan nan nan nan nan nan nan nan nan nan nan nan nan nan nan nan nan nan nan nan nan nan nan nan nan nan nan nan nan nan nan nan nan nan nan nan nan nan nan nan nan nan nan nan nan nan 1 4 5 5 10 15 20 23 23 26 31 33 33 37 40 44 44 50 58 58 49 23 17 17 13
nan nan nan nan nan nan nan nan nan nan nan nan nan nan nan nan nan nan nan nan nan nan nan nan nan nan nan nan nan nan nan nan nan nan nan nan nan nan nan nan nan nan nan nan nan nan nan nan nan nan nan nan nan nan nan nan nan nan nan nan nan nan 5 11 11 9 10 16 20 20 25 27 33 33 39 44 47 47 52 55 55 52 26 13 13 17
nan nan nan nan nan nan nan nan nan nan nan nan nan nan nan nan nan nan nan nan nan nan nan nan nan nan nan nan nan nan nan nan nan nan nan nan nan nan nan nan nan nan nan nan nan nan nan nan nan nan nan nan nan nan nan nan nan nan nan nan nan nan 2 6 6 5 10 11 15 15 25 26 34 34 37 42 48 48 54 56 56 56 48 14 14 16
nan nan nan nan nan nan nan nan nan nan nan nan nan nan nan nan nan nan nan nan nan nan nan nan nan nan nan nan nan nan nan nan nan nan nan nan nan nan nan nan nan nan nan nan nan nan nan nan nan nan nan nan nan nan nan nan nan nan nan nan nan nan 0 3 3 5 7 7 5 5 10 12 31 31 31 36 46 46 51 55 55 53 51 34 34 19
nan nan nan nan nan nan nan nan nan nan nan nan nan nan nan nan nan nan nan nan nan nan nan nan nan nan nan nan nan nan nan nan nan nan nan nan nan nan nan nan nan nan nan nan nan nan nan nan nan nan nan nan nan nan nan nan nan nan nan nan nan nan 0 2 2 5 6 5 7 7 6 6 9 9 16 29 41 41 49 50 50 51 49 51 51 36
nan nan nan nan nan nan nan nan nan nan nan nan nan nan nan nan nan nan nan nan nan nan nan nan nan nan nan nan nan nan nan nan nan nan nan nan nan nan nan nan nan nan nan nan nan nan nan nan nan nan nan nan nan nan nan nan nan nan nan nan nan 0 1 3 3 4 4 5 8 8 9 9 9 9 11 31 40 40 43 43 43 44 46 46 46 41
nan nan nan nan nan nan nan nan nan nan nan nan nan nan nan nan nan nan nan nan nan nan nan nan nan nan nan nan nan nan nan nan nan nan nan nan nan nan nan nan nan nan nan nan nan nan nan nan nan nan nan nan nan nan nan nan nan nan nan nan nan 0 1 3 3 5 4 8 8 8 11 10 9 9 14 28 25 25 30 34 34 35 40 40 40 40
nan nan nan nan nan nan nan nan nan nan nan nan nan nan nan nan nan nan nan nan nan nan nan nan nan nan nan nan nan nan nan nan nan nan nan nan nan nan nan nan nan nan nan nan nan nan nan nan nan nan nan nan nan nan nan nan nan nan nan 0 0 0 1 2 2 4 4 6 12 12 13 11 7 7 7 9 5 5 5 7 7 22 29 32 32 36
nan nan nan nan nan nan nan nan nan nan nan nan nan nan nan nan nan nan nan nan nan nan nan nan nan nan nan nan nan nan nan nan nan nan nan nan nan nan nan nan nan nan nan nan nan nan nan nan nan nan nan nan nan nan nan nan nan nan 0 1 1 1 1 4 4 5 5 5 10 10 8 5 4 4 3 2 2 2 2 3 3 10 13 13 13 26
nan nan nan nan nan nan nan nan nan nan nan nan nan nan nan nan nan nan nan nan nan nan nan nan nan nan nan nan nan nan nan nan nan nan nan nan nan nan nan nan nan nan nan nan nan nan nan nan nan nan 0 nan nan nan nan nan nan nan 2 1 1 0 2 3 3 3 3 2 3 3 3 2 3 3 2 2 1 1 1 1 1 3 7 6 6 10
nan nan nan nan nan nan nan nan nan nan nan nan nan nan nan nan nan nan nan nan nan nan nan nan nan nan nan nan nan nan nan nan nan nan nan nan nan nan nan nan nan nan nan nan nan nan nan nan nan nan nan nan 0 0 0 nan nan 2 6 1 1 0 2 4 4 1 1 1 1 1 4 4 4 4 2 2 1 1 1 1 1 2 5 5 5 8
nan nan nan nan nan nan nan nan nan nan nan nan nan nan nan nan nan nan nan nan nan nan nan nan nan nan nan nan nan nan nan nan nan nan nan nan nan nan nan nan nan nan nan nan nan nan nan nan nan 0 nan nan 0 0 nan nan nan 2 3 1 1 2 5 3 3 0 0 0 0 0 7 2 1 1 1 1 0 0 2 1 1 7 7 3 3 5
nan nan nan nan nan nan nan nan nan nan nan nan nan nan nan nan nan nan nan nan nan nan nan nan nan nan nan nan nan nan nan nan nan nan nan nan nan nan nan nan nan nan nan nan nan nan nan 0 0 nan nan 0 0 0 0 0 0 0 1 4 4 3 1 0 0 0 0 0 1 1 0 1 1 1 1 1 1 1 1 4 4 12 11 2 2 2
nan nan nan nan nan nan nan nan nan nan nan nan nan nan nan nan nan nan nan nan nan nan nan nan nan nan nan nan nan nan nan nan nan nan nan nan nan nan nan nan nan nan nan nan nan nan nan nan nan nan nan 0 0 0 0 0 0 1 1 5 5 5 1 1 1 1 1 1 1 1 0 0 1 1 1 1 0 0 1 1 1 0 4 2 2 2
nan nan nan nan nan nan nan nan nan nan nan nan nan nan nan nan nan nan nan nan nan nan nan nan nan nan nan nan nan nan nan nan nan nan nan nan nan nan nan nan nan nan nan nan nan nan nan nan nan nan nan 0 0 0 0 0 0 2 7 9 9 5 1 2 2 1 1 1 1 1 0 1 1 1 0 0 0 0 0 1 1 1 2 2 2 1
nan nan nan nan nan nan nan nan nan nan nan nan nan nan nan nan nan nan nan nan nan nan nan nan nan nan nan nan nan nan nan nan nan nan nan nan nan nan nan nan nan nan nan nan nan 0 nan nan nan nan 0 1 1 1 1 1 1 5 7 7 7 3 1 1 1 1 1 2 2 2 1 1 0 0 0 0 0 0 0 0 0 1 1 1 1 1
nan nan nan nan nan nan nan nan nan nan nan nan nan nan nan nan nan nan nan nan nan nan nan nan nan nan nan nan nan nan nan nan nan nan nan nan nan nan nan nan nan 0 nan nan nan nan 0 0 0 0 0 1 1 1 1 4 4 5 4 2 2 1 1 0 0 1 2 2 1 1 1 0 nan nan nan nan nan nan nan 0 0 0 0 0 0 1
nan nan nan nan nan nan nan nan nan nan nan nan nan nan nan nan nan nan nan nan nan nan nan nan nan nan nan nan nan nan nan nan nan nan nan nan nan nan nan nan nan nan 0 0 0 0 nan nan nan 0 1 1 1 1 3 5 5 3 2 1 1 0 0 0 0 0 1 1 1 1 0 0 nan nan nan nan nan nan nan nan nan nan nan nan nan 1
nan nan nan nan nan nan nan nan nan nan nan nan nan nan nan nan nan nan nan nan nan nan nan nan nan nan nan nan nan nan nan nan nan nan nan nan nan nan nan nan nan nan nan 0 0 0 nan nan nan nan nan 0 1 1 3 5 5 3 0 0 0 0 0 nan nan 0 nan 0 0 0 0 0 nan nan 0 0 0 0 0 nan nan nan nan nan nan nan
nan nan nan nan nan nan nan nan nan nan nan nan nan nan nan nan nan nan nan nan nan nan nan nan nan nan nan nan nan nan nan nan nan nan nan nan nan nan nan nan nan nan nan nan nan nan nan 0 0 0 3 4 3 3 5 2 2 1 0 0 0 nan 0 nan nan nan nan nan 0 0 0 nan nan nan 1 1 1 1 0 nan nan nan nan nan nan 0
nan nan nan nan nan nan nan nan nan nan nan nan nan nan nan nan nan nan nan nan nan nan nan nan nan nan nan nan nan nan nan nan nan nan nan nan nan nan nan nan nan 0 nan nan nan nan nan nan nan nan nan 3 4 4 0 nan nan 0 1 0 0 nan 0 nan nan nan nan nan nan nan 0 nan nan nan 0 0 1 1 0 0 0 nan nan nan nan 0